Raton, NM

10:05 PM MDT on March 29, 2017 (GMT -0600)
Raton Municipal-Crews

Weather History for KRTN - March, 2013

Change the Weather History Date:

Friday, March 15, 2013

  Actual Average (KTAD) Record (KTAD)
Temperature  
Mean Temperature 50 °F -  
Max Temperature 77 °F 54 °F 79 °F (2017)
Min Temperature 28 °F 25 °F 8 °F (1969)
Degree Days  
Heating Degree Days 14    
Moisture  
Dew Point 14 °F    
Average Humidity 31    
Maximum Humidity 72    
Minimum Humidity 6    
Precipitation  
Precipitation 0.00 in - - ()
Sea Level Pressure  
Sea Level Pressure 29.95 in    
Wind  
Wind Speed 8 mph (NNW)    
Max Wind Speed 24 mph    
Max Gust Speed 32 mph    
Visibility 10 miles    
Events      
Averages and records for this station are not official NWS values.
T = Trace of Precipitation, MM = Missing Value Source: NWS Daily Summary

Daily Weather History Graph

Daily Weather History Graph

Search for Another Location

Airport or City:

Trip Planner

Search our weather history database for the weather conditions in past years. The results will help you decide how hot, cold, wet, or windy it might be!

Date:

Astronomy

Mar. 15, 2013 Rise Set
Actual Time 7:08 AM MDT 7:05 PM MDT
Civil Twilight 6:42 AM MDT 7:31 PM MDT
Nautical Twilight 6:12 AM MDT 8:01 PM MDT
Astronomical Twilight 5:42 AM MDT 8:31 PM MDT
Moon 9:07 AM MDT (3/15) 11:14 PM MDT (3/15)
Length of Visible Light 12h 48m
Length of Day
11h 57m
Waxing Crescent, 16% of the Moon is Illuminated
Mar 15
Waxing Crescent
Mar 19
First Quarter
Mar 27
Full
Apr 2
Last Quarter
Apr 10
New

Hourly Weather History & Observations

Time (MDT) Temp. Windchill Dew Point Humidity Pressure Visibility Wind Dir Wind Speed Gust Speed Precip Events Conditions
12:53 AM 37.0 °F 31.6 °F 21.9 °F 54% 30.12 in 10.0 mi NNE 6.9 mph - N/A   Clear
1:53 AM 35.1 °F 31.0 °F 21.0 °F 57% 30.11 in 10.0 mi North 4.6 mph - N/A   Clear
2:53 AM 34.0 °F 28.0 °F 21.9 °F 61% 30.08 in 10.0 mi ENE 6.9 mph - N/A   Clear
3:53 AM 35.1 °F 29.3 °F 21.0 °F 57% 30.05 in 10.0 mi North 6.9 mph - N/A   Clear
4:53 AM 28.9 °F 21.9 °F 21.0 °F 72% 30.06 in 10.0 mi ENE 6.9 mph - N/A   Clear
5:53 AM 28.9 °F 21.9 °F 21.0 °F 72% 30.05 in 10.0 mi NE 6.9 mph - N/A   Clear
6:53 AM 30.0 °F 23.2 °F 21.0 °F 69% 30.07 in 10.0 mi NE 6.9 mph - N/A   Clear
7:53 AM 32.0 °F 25.6 °F 21.9 °F 66% 30.09 in 10.0 mi NE 6.9 mph - N/A   Clear
8:53 AM 39.0 °F 35.7 °F 23.0 °F 53% 30.08 in 10.0 mi ENE 4.6 mph - N/A   Clear
9:53 AM 48.9 °F - 23.0 °F 36% 30.04 in 10.0 mi NE 3.5 mph - N/A   Clear
10:53 AM 60.1 °F - 19.0 °F 20% 29.96 in 10.0 mi Calm Calm - N/A   Clear
11:53 AM 70.0 °F - 17.1 °F 13% 29.92 in 10.0 mi SSE 5.8 mph - N/A   Clear
12:53 PM 73.9 °F - 9.0 °F 8% 29.89 in 10.0 mi ESE 4.6 mph - N/A   Clear
1:53 PM 73.9 °F - 8.1 °F 8% 29.86 in 10.0 mi Variable 5.8 mph - N/A   Clear
2:24 PM 73.4 °F - 3.2 °F 6% 30.02 in 10.0 mi West 8.1 mph 20.7 mph N/A   Clear
2:53 PM 73.9 °F - 1.0 °F 6% 29.85 in 10.0 mi NW 11.5 mph 27.6 mph N/A   Clear
3:53 PM 73.0 °F - 6.1 °F 7% 29.83 in 10.0 mi WNW 15.0 mph 20.7 mph N/A   Clear
4:53 PM 72.0 °F - 5.0 °F 7% 29.84 in 10.0 mi West 16.1 mph - N/A   Clear
5:53 PM 70.0 °F - 6.1 °F 8% 29.83 in 10.0 mi West 24.2 mph 32.2 mph N/A   Clear
6:53 PM 66.0 °F - 9.0 °F 11% 29.87 in 10.0 mi West 12.7 mph - N/A   Clear
7:53 PM 62.1 °F - 10.0 °F 13% 29.88 in 10.0 mi West 9.2 mph - N/A   Clear
8:53 PM 57.9 °F - 12.0 °F 16% 29.86 in 10.0 mi West 15.0 mph - N/A   Clear
9:53 PM 55.0 °F - 14.0 °F 20% 29.83 in 10.0 mi WSW 9.2 mph - N/A   Clear
10:53 PM 57.9 °F - 12.9 °F 17% 29.78 in 10.0 mi WSW 8.1 mph - N/A   Clear
11:53 PM 55.9 °F - 12.9 °F 18% 29.73 in 10.0 mi West 13.8 mph - N/A   Clear